Wind_Speed
2 5 7 10 5 4 7 5 5 1 1 2 4 7 11 7 5 9 8 8 7 9 14 16 17 19 24 31 32 32 32 35 34 33 30 26 29 28 27 26 26 26 25 27
5 4 5 10 6 7 5 6 3 2 2 3 1 10 10 7 6 4 5 8 7 6 7 14 12 12 22 26 31 33 34 33 34 35 30 23 23 26 29 29 28 30 30 29
7 2 9 6 5 6 2 6 5 4 2 3 3 7 6 2 3 5 4 4 4 5 7 7 9 5 8 17 23 27 32 34 33 33 29 24 18 22 21 27 29 31 32 33
4 2 7 8 5 5 5 4 6 7 4 2 3 4 5 3 7 5 6 6 5 6 5 6 10 10 7 2 11 18 22 26 28 28 29 28 23 23 25 23 27 27 26 29
5 8 7 5 5 6 3 5 6 4 5 3 3 2 7 3 2 3 4 5 5 5 5 6 10 12 13 11 4 6 13 16 20 24 27 28 24 28 26 24 24 24 24 23
3 1 2 4 4 2 10 7 8 5 3 1 1 4 5 3 3 2 3 4 5 6 6 8 12 16 19 18 17 11 6 5 8 12 17 22 25 26 25 25 24 23 22 22
3 1 1 3 8 6 4 6 3 2 2 4 2 3 8 3 2 2 2 5 5 5 6 7 11 19 25 26 24 21 17 13 6 4 7 13 15 16 17 18 19 20 20 21
7 3 7 3 5 8 6 6 5 7 4 2 2 5 5 2 5 2 4 5 6 7 6 7 12 19 24 25 25 25 24 21 15 10 5 1 4 8 11 12 14 15 17 18
5 4 2 2 1 3 5 5 4 8 2 3 3 6 5 3 5 5 6 6 7 6 6 7 13 19 22 24 23 22 22 21 19 16 13 10 7 5 6 7 9 11 12 14
7 5 2 1 2 3 4 8 4 3 3 3 3 5 5 5 5 5 6 7 6 5 7 7 16 21 24 24 23 24 24 24 21 20 18 15 13 11 10 9 9 10 11 13
6 4 0 3 5 8 3 3 5 5 4 5 3 6 6 9 8 10 8 6 7 7 7 6 15 21 23 24 25 24 24 23 23 21 19 18 17 16 15 14 14 14 15 15
5 5 4 5 1 1 1 6 6 5 5 1 3 5 1 6 7 7 7 7 6 7 6 8 15 20 22 23 23 23 22 23 21 20 19 18 17 18 18 19 19 19 19 19
8 2 3 3 2 3 5 5 4 5 4 7 6 5 2 4 5 6 8 7 6 6 6 6 13 16 18 19 19 21 22 22 21 21 21 21 22 23 24 23 23 23 24 23
8 4 8 12 5 7 6 6 4 4 3 6 6 6 5 7 7 6 5 8 8 7 7 6 8 13 15 16 16 18 19 20 20 20 21 21 22 23 24 24 25 25 25 26
6 7 5 1 3 5 5 11 11 10 14 8 8 11 18 17 13 8 6 6 7 7 7 6 6 10 12 13 14 15 17 18 19 19 20 20 20 21 23 24 25 25 25 26
0 3 4 2 2 2 4 9 18 19 5 1 6 7 6 10 7 6 7 8 7 6 6 6 7 9 9 10 11 13 15 16 17 18 18 19 21 23 24 25 26 26 26 27
7 6 3 4 3 5 4 15 13 7 6 12 10 7 7 6 15 10 8 8 8 7 6 6 6 7 7 10 11 14 15 15 16 17 20 22 25 28 29 29 30 31 31 29
8 6 3 3 3 5 6 1 10 16 7 7 5 7 11 8 5 6 5 7 8 7 6 6 5 4 6 8 11 13 15 17 19 21 24 26 28 30 31 32 32 32 33 32
1 6 4 5 8 4 3 5 8 10 12 12 9 7 6 8 6 4 5 5 7 6 9 7 4 3 5 8 11 15 18 20 22 24 26 29 30 31 32 33 33 34 33 33
1 6 7 3 5 13 4 3 5 5 5 8 13 12 11 7 4 4 8 6 8 9 8 5 3 5 9 13 15 17 18 21 23 26 28 29 30 32 34 35 34 34 33 34
5 3 9 4 3 6 4 4 3 7 5 2 7 9 10 6 3 6 8 6 10 9 7 4 2 4 7 9 12 13 16 19 22 24 27 29 30 31 32 35 33 33 33 34
7 7 4 3 3 6 7 4 9 4 2 4 6 6 8 9 8 8 8 7 8 5 3 2 3 5 8 10 13 15 18 23 25 27 29 31 31 32 33 33 33 32 30 31
2 3 6 6 4 2 3 2 3 4 6 5 7 6 9 9 6 7 6 5 4 3 4 4 2 5 9 12 17 20 22 24 28 30 31 33 36 36 33 32 34 33 31 30
3 2 4 5 3 3 1 2 4 5 5 7 6 8 7 8 8 6 4 2 1 2 3 4 6 11 15 17 19 20 24 27 28 30 31 33 34 34 30 25 27 30 29 28
3 5 5 2 2 1 3 4 5 7 8 9 6 6 7 9 6 5 5 5 3 4 3 6 11 14 18 22 24 25 26 26 27 29 31 31 24 24 26 25 26 29 31 26
5 6 5 5 10 5 6 8 7 9 8 10 8 7 7 7 8 7 5 6 7 3 8 10 14 19 24 26 27 26 23 22 23 28 29 26 26 25 24 26 29 25 27 23
Wind_Direction
36 102 180 185 140 141 135 118 133 180 6 153 235 271 275 281 261 280 272 279 272 268 281 278 267 250 239 235 232 229 227 227 225 223 219 222 229 230 233 234 236 241 240 239
55 202 190 114 122 119 115 119 132 83 71 132 36 281 267 269 250 247 283 289 290 291 307 307 295 261 237 234 231 230 230 229 226 225 218 217 223 235 238 242 241 244 246 245
147 213 137 119 137 115 100 146 169 142 123 75 333 298 317 324 341 334 351 307 327 297 320 335 346 336 248 234 232 231 233 232 231 229 221 217 220 230 233 240 244 245 250 250
144 117 134 122 164 132 159 166 125 122 94 198 4 275 302 316 328 41 23 27 20 14 1 0 26 38 35 276 237 233 232 233 233 229 227 217 216 225 235 238 249 252 255 254
202 155 142 147 192 159 163 114 110 95 95 85 341 69 271 357 95 77 24 13 13 356 0 1 19 32 41 43 51 217 223 224 227 229 231 231 223 234 244 249 256 262 266 263
86 50 108 152 75 73 150 83 54 51 87 80 204 151 277 242 185 150 358 4 10 8 17 33 50 53 52 57 62 73 110 175 210 222 230 237 243 248 251 258 264 268 270 269
61 23 26 137 83 3 87 97 47 6 347 209 19 129 245 258 288 268 306 38 28 40 48 46 42 51 56 55 59 66 73 81 99 168 218 235 247 255 261 267 273 278 279 277
147 202 175 187 167 171 181 155 157 188 195 199 64 225 248 202 337 268 63 100 83 64 57 57 57 65 67 65 64 68 70 71 70 71 68 14 268 271 278 284 286 286 288 291
135 199 48 59 123 144 190 193 156 104 23 67 216 286 321 56 87 86 101 102 90 78 70 66 65 67 66 65 64 66 68 67 63 61 58 51 37 7 337 316 305 302 303 302
195 111 11 268 150 51 166 158 79 9 126 226 277 280 231 168 152 138 133 120 102 93 74 57 54 65 70 71 69 66 62 60 57 54 51 48 42 32 18 3 350 333 319 312
137 101 243 155 213 167 135 160 63 114 136 162 173 253 213 180 173 158 166 144 112 92 75 64 63 70 70 68 63 60 55 52 49 47 44 40 35 30 22 14 3 351 341 331
195 116 145 192 328 335 133 170 156 143 208 204 141 269 338 165 156 148 152 134 113 97 83 72 72 71 66 63 60 56 50 47 42 37 37 34 28 23 15 10 4 356 349 343
184 165 87 33 6 343 208 202 139 108 95 187 139 247 12 146 172 167 140 133 123 111 98 85 75 68 64 59 55 51 45 40 35 32 27 23 19 13 8 3 357 352 347 343
120 139 174 199 198 131 173 172 177 135 156 162 218 160 196 208 194 197 171 133 133 127 121 106 81 72 68 60 52 44 40 34 30 26 20 16 11 5 358 353 349 345 343 338
153 180 141 71 163 136 156 172 173 194 207 182 200 181 192 196 193 190 182 134 126 119 107 102 91 77 67 57 48 40 35 28 22 19 13 8 1 356 352 348 344 340 337 334
357 168 118 89 60 156 163 180 191 207 188 146 154 227 198 181 138 168 179 157 150 138 122 108 102 95 76 51 37 27 24 18 12 11 6 0 357 355 353 350 346 342 339 336
139 133 116 221 137 104 321 210 188 195 190 185 195 194 153 149 179 184 177 167 155 151 141 123 99 79 62 31 17 15 10 4 4 1 359 357 352 349 347 344 343 342 340 339
142 113 93 124 131 183 250 29 192 196 192 182 114 166 168 162 134 140 141 148 152 151 150 139 119 79 49 23 12 5 3 360 360 357 354 350 346 343 341 340 339 338 336 334
266 135 118 169 206 312 224 197 155 171 230 194 151 146 126 118 93 57 142 143 158 154 152 144 105 57 37 23 10 1 356 352 352 348 344 342 340 338 336 336 335 333 331 329
120 55 183 158 173 205 215 181 160 115 277 175 160 168 153 146 166 191 163 143 134 133 136 134 95 34 12 4 353 349 345 343 344 341 336 334 333 332 331 330 330 329 327 324
159 156 190 170 187 280 231 159 176 149 240 152 151 148 147 157 181 140 136 124 135 134 137 140 123 6 356 347 347 345 338 342 335 331 328 326 326 324 324 323 324 323 322 319
165 155 165 124 131 254 158 76 164 190 70 138 122 134 123 123 118 118 127 133 133 120 93 29 319 327 338 344 349 344 334 333 328 323 319 318 317 317 317 317 319 320 317 315
190 182 168 175 204 336 198 96 120 149 134 157 127 134 133 132 135 132 125 103 72 23 336 326 314 324 325 339 341 333 326 325 322 317 314 313 313 312 313 311 313 319 317 311
286 282 120 126 214 187 169 83 151 167 136 133 125 131 130 129 139 134 129 155 181 24 39 14 345 332 321 324 322 322 321 323 319 314 311 311 310 309 307 303 305 310 310 308
187 126 144 2 322 323 269 241 158 119 116 114 119 127 137 133 152 154 167 156 135 101 45 344 334 327 319 321 320 324 325 325 318 312 311 311 305 301 299 295 290 294 303 301
192 166 162 212 179 157 186 174 164 141 157 157 139 136 145 151 152 144 122 115 110 25 343 338 330 325 320 320 320 323 328 326 319 311 310 306 304 299 296 298 298 290 294 296
Height
803 813 822 817 816 821 833 834 838 839 837 837 843 843 836 829 829 826 824 825 824 822 816 815 815 817 820 823 827 830 834 835 840 845 849 853 854 858 861 863 865 868 870 871
811 818 812 816 823 826 827 835 837 840 840 840 845 841 830 827 825 823 823 822 822 819 817 813 811 811 812 815 819 824 827 831 834 838 842 847 851 854 857 859 860 862 863 865
810 808 812 814 824 826 830 833 837 834 841 846 848 842 831 823 825 824 822 822 821 819 817 813 809 809 809 811 814 817 821 825 829 833 838 842 847 850 852 853 854 856 858 860
805 811 812 821 823 824 830 826 833 840 843 852 851 854 838 827 828 825 828 826 823 821 818 816 812 809 808 809 810 813 817 822 826 831 834 836 839 843 844 848 849 851 854 855
807 812 815 818 816 818 826 829 836 845 855 852 852 858 838 833 822 821 825 825 825 823 821 818 815 812 810 809 809 810 815 819 822 826 830 834 836 838 841 844 846 848 849 850
808 806 806 811 822 819 832 836 848 859 861 865 855 860 844 832 822 819 822 826 826 824 822 819 818 816 813 812 811 811 813 818 822 826 829 832 835 837 840 842 843 844 845 845
810 812 810 814 824 826 824 836 862 866 876 864 870 868 837 823 824 825 822 826 827 826 825 823 821 819 818 816 816 816 817 820 823 826 829 831 834 836 837 838 839 840 841 840
815 823 815 810 813 820 828 824 848 858 873 858 870 859 831 825 828 826 828 829 828 828 827 826 825 823 821 821 822 822 821 823 825 827 830 831 832 834 835 835 836 836 836 836
806 809 811 810 810 809 824 830 832 868 938 883 860 846 827 828 828 829 832 830 829 829 828 828 827 826 826 825 826 826 826 827 828 829 830 832 833 833 833 834 834 833 833 832
790 811 816 813 811 814 815 823 836 858 880 873 858 853 834 827 829 831 833 831 830 829 829 829 830 829 829 829 831 830 830 830 831 830 831 831 832 833 833 832 831 830 830 829
784 796 820 815 813 817 819 819 829 833 844 857 877 842 830 824 826 828 832 830 829 830 831 832 833 833 833 832 833 833 833 833 833 832 833 833 832 832 832 831 830 828 826 824
779 799 821 812 812 813 808 812 815 829 844 866 857 836 821 823 825 828 830 830 831 833 836 836 835 835 835 836 836 836 837 836 836 836 835 834 834 833 832 830 828 826 824 821
776 797 830 814 812 816 812 813 812 820 831 849 847 834 829 827 827 826 829 832 833 835 837 837 836 837 838 838 839 838 838 838 837 836 836 834 833 831 830 828 826 823 820 818
764 788 787 783 785 796 806 809 810 804 823 830 825 827 826 827 826 822 822 829 833 835 836 837 836 837 838 839 840 839 838 837 837 836 835 834 832 831 829 827 825 823 819 817
764 780 783 787 786 789 792 800 807 804 793 807 804 814 811 811 818 820 820 826 829 832 834 835 836 837 839 839 839 839 837 836 837 836 835 834 833 831 829 826 824 821 818 815
771 796 787 802 795 788 788 796 794 788 798 801 811 803 796 800 816 819 819 824 829 832 835 836 837 838 840 841 841 839 837 836 836 835 835 833 831 829 826 824 821 818 814 810
770 785 802 816 800 793 804 783 790 790 797 789 800 787 801 808 808 816 819 823 828 832 835 836 836 838 839 839 839 837 836 836 835 834 832 829 827 825 823 819 815 811 807 804
766 777 791 798 803 799 763 776 773 772 779 785 784 788 791 797 805 811 815 820 827 830 832 833 835 837 838 838 838 836 835 834 832 830 828 826 823 821 818 815 811 807 803 799
758 765 785 786 779 779 769 779 780 774 771 777 782 791 797 807 811 819 818 820 824 826 828 831 833 835 835 835 834 833 832 831 829 827 825 823 820 817 813 809 806 803 797 793
763 760 759 791 776 765 754 763 768 767 781 772 776 786 796 801 806 812 817 819 822 825 827 829 831 832 832 832 832 832 831 829 827 825 823 820 818 813 808 805 801 796 793 788
760 765 763 775 781 781 773 767 769 776 773 782 776 783 793 797 799 805 813 817 821 824 826 828 829 830 831 831 832 831 830 829 827 823 821 818 813 810 806 801 798 793 789 785
748 754 769 776 776 763 768 770 767 769 778 779 783 786 793 801 806 809 813 817 820 822 824 825 826 828 829 830 830 830 827 827 823 819 816 812 808 806 801 797 792 788 785 779
754 743 755 755 757 764 766 761 765 769 773 780 781 787 791 798 803 808 812 815 816 819 821 824 826 827 828 827 827 826 823 820 818 815 811 806 802 799 795 791 786 781 778 774
766 768 756 754 772 774 767 767 768 769 771 777 783 787 790 796 802 806 809 812 814 817 820 822 824 825 825 824 824 823 819 815 813 809 804 801 797 792 790 786 781 777 772 768
759 763 778 780 777 778 773 770 767 770 773 778 784 786 790 795 800 804 809 812 814 817 820 821 821 821 820 818 817 815 813 811 806 801 797 794 792 788 784 780 776 771 766 764
756 754 752 754 754 753 755 762 766 769 775 778 782 788 792 794 798 802 806 810 813 815 816 816 816 816 814 812 810 809 809 806 802 796 792 790 786 783 779 774 766 764 760 756